Temperature
13 13 13 13 13 13 14 14 14 14 14 14 14 14 15 15 15 15 15 15 15 16 16 16 16 16 16 16 16 16 16 16 16 16 16 16 16 16
12 13 13 13 13 13 13 13 14 14 14 14 14 14 14 14 15 15 15 15 15 15 15 15 16 16 16 16 16 16 16 16 16 16 16 16 16 16
13 13 13 13 13 13 13 13 13 13 14 14 14 14 14 14 14 14 14 14 15 15 15 15 15 15 15 15 15 15 16 16 16 16 16 16 16 16
13 13 13 13 13 13 13 13 13 13 13 13 13 13 14 14 14 14 14 14 14 14 14 14 15 15 15 15 15 15 15 15 15 15 15 15 16 16
13 13 13 13 13 13 13 13 13 13 13 13 13 13 13 13 13 14 14 14 14 14 14 14 14 14 14 14 15 15 15 15 15 15 15 15 15 15
13 13 13 13 12 12 13 13 13 13 13 13 13 13 13 13 13 13 13 13 14 14 14 14 14 14 14 14 14 14 14 14 14 15 15 15 15 15
13 13 13 13 12 12 12 12 12 12 13 13 13 13 13 13 13 13 13 13 13 13 13 13 13 14 14 14 14 14 14 14 14 14 14 14 14 15
13 13 13 13 13 12 12 12 12 12 12 12 12 12 12 12 12 12 13 13 13 13 13 13 13 13 13 13 13 13 14 14 14 14 14 14 14 14
13 13 13 13 13 13 12 12 12 12 12 12 12 12 12 12 12 12 12 12 12 12 13 13 13 13 13 13 13 13 13 13 13 13 13 14 14 14
13 13 13 13 13 13 12 13 12 12 12 12 12 12 12 12 12 12 12 12 12 12 12 12 12 13 13 12 12 12 12 12 13 13 13 13 13 13
13 13 13 13 13 13 12 13 12 12 12 12 12 12 12 12 12 12 12 12 12 12 12 12 12 12 12 12 12 12 12 12 12 12 12 12 12 13
13 13 13 13 13 13 13 12 12 12 12 12 12 12 12 12 12 12 11 11 11 11 11 11 11 11 12 11 11 11 11 11 11 12 12 12 12 12
13 13 13 13 13 13 12 12 12 12 12 12 12 12 11 11 11 11 11 11 11 11 11 11 11 11 11 11 11 11 11 11 11 11 11 11 11 11
14 13 13 13 13 12 12 12 12 12 12 12 11 11 11 11 11 11 11 11 11 11 10 10 10 10 10 10 10 10 10 10 10 10 11 11 10 11
14 13 13 12 12 12 12 12 12 12 12 11 11 11 11 11 11 11 10 10 10 10 10 10 10 10 10 10 9 9 9 9 9 10 10 10 10 10
14 13 13 12 12 12 12 12 12 11 11 11 11 11 11 11 10 10 10 10 10 10 10 9 9 9 9 9 9 9 9 8 8 9 9 9 9 9
13 13 12 12 12 12 12 12 11 11 11 11 11 11 10 10 10 10 10 9 9 9 9 9 9 9 9 8 8 8 8 8 8 8 8 8 8 8
13 13 13 12 12 12 12 11 11 11 11 11 10 10 10 10 10 9 9 9 9 9 8 8 8 8 8 8 7 7 7 7 7 7 7 7 8 8
13 13 13 12 12 12 11 11 11 11 10 10 10 10 9 9 9 9 9 8 8 8 8 8 7 7 7 7 7 7 6 6 7 7 7 7 7 7
13 13 13 12 12 12 11 11 11 10 10 10 9 9 9 9 9 8 8 8 8 7 7 7 7 6 6 6 6 6 6 5 5 6 6 6 6 7
13 13 12 12 12 11 11 11 10 10 10 9 9 9 8 8 8 8 8 7 7 7 6 6 6 6 5 5 5 5 5 4 4 4 4 5 5 6
13 13 12 12 12 11 11 10 10 10 9 9 9 8 8 8 8 7 7 7 6 6 6 5 5 5 5 4 4 5 5 5 4 4 3 3 3 3
12 12 12 12 11 11 10 10 10 9 9 9 8 8 8 7 7 7 6 6 6 5 5 5 5 4 4 4 4 4 4 4 4 4 4 3 3 2
Wind_Speed
1 1 1 1 1 1 2 2 3 2 0 2 1 2 3 3 3 3 2 1 1 1 1 2 3 4 4 4 4 5 5 6 8 9 10 11 12 14
0 1 1 1 1 1 1 2 2 3 2 1 1 2 2 2 3 3 2 1 1 0 0 1 2 3 4 4 3 4 5 6 7 9 10 11 12 13
1 1 0 1 1 1 1 1 1 2 2 1 1 1 1 2 3 3 3 2 2 1 1 1 2 3 3 4 4 4 4 5 7 8 10 12 13 13
1 1 1 1 2 1 1 1 1 1 2 1 1 1 1 1 2 2 2 3 2 2 0 1 1 2 3 4 4 5 5 6 6 7 8 10 11 11
2 2 2 2 2 1 1 1 1 1 1 2 0 1 1 1 2 2 2 2 2 2 1 0 1 2 2 3 4 5 5 6 6 7 8 9 10 10
2 2 2 3 3 3 2 2 2 2 2 2 1 1 1 1 1 1 2 2 2 2 3 2 2 2 2 3 4 5 5 5 6 7 8 9 9 9
2 2 3 5 5 4 3 3 3 2 2 2 1 0 0 0 0 0 1 2 2 1 2 2 2 2 2 2 2 3 4 4 5 6 7 8 9 9
4 3 3 3 4 5 4 5 5 4 3 3 2 2 2 2 1 1 1 1 1 2 1 2 1 1 2 3 3 3 3 3 4 6 6 7 8 9
5 4 3 3 4 2 2 3 3 4 5 5 4 4 3 4 3 1 1 2 2 2 1 2 2 2 2 3 3 2 2 3 4 5 5 6 7 8
6 6 5 4 4 5 4 2 2 1 2 3 4 4 4 4 3 3 3 1 1 1 1 1 1 1 2 3 4 3 4 4 5 5 5 5 6 7
6 6 7 6 7 7 5 4 2 2 2 2 4 3 3 4 5 3 2 1 0 1 0 0 1 1 2 2 3 5 6 7 7 7 7 7 6 6
5 6 9 9 9 9 7 6 5 4 2 1 1 0 0 1 4 3 3 2 2 1 1 0 1 1 2 2 2 4 5 7 8 8 9 9 8 4
6 6 7 11 11 11 10 7 8 5 4 3 2 1 1 1 1 1 2 3 3 2 1 1 0 0 0 2 2 2 3 4 5 6 9 10 9 5
8 7 7 11 12 11 9 8 9 6 4 3 2 2 1 1 0 1 1 2 2 2 1 1 1 1 1 1 2 2 2 4 4 4 6 8 8 8
8 10 10 11 10 8 9 10 8 5 5 4 4 3 2 2 1 1 2 3 4 4 4 2 1 1 1 2 1 1 2 2 4 4 5 4 4 4
7 8 10 9 7 7 6 5 5 6 6 5 4 3 2 2 2 2 2 1 2 2 5 7 4 1 1 0 0 1 1 2 4 4 4 4 4 5
8 5 4 4 5 4 4 4 4 5 5 4 4 4 3 3 2 2 2 2 2 1 2 3 5 4 2 1 1 1 1 2 3 4 4 4 3 4
10 6 7 8 8 8 7 5 5 6 5 5 5 5 5 4 4 2 2 3 3 2 1 2 3 3 3 3 2 1 1 2 3 4 3 3 5 5
9 8 9 10 9 8 8 7 6 6 6 6 6 6 5 5 4 4 3 3 3 2 1 1 2 2 1 2 3 2 1 2 3 3 3 3 6 8
8 9 10 10 9 9 9 7 7 6 6 6 6 6 6 5 5 4 4 4 3 2 2 1 1 1 2 2 2 2 3 2 2 4 5 5 6 9
11 10 9 9 9 9 9 9 9 8 8 7 7 7 6 5 5 5 5 5 4 3 2 1 1 1 1 0 2 3 3 4 5 4 5 6 6 5
11 11 10 10 10 10 9 9 9 8 9 7 7 7 7 6 7 7 6 5 3 3 2 1 1 1 1 1 3 5 5 5 7 9 8 7 5 5
11 10 10 10 10 9 10 10 11 9 9 8 8 8 8 7 6 6 6 5 4 3 2 1 0 0 1 2 3 5 7 7 6 6 7 10 12 15
Wind_Direction
61 83 82 16 41 78 118 141 142 132 306 318 341 341 1 30 33 50 51 78 114 132 197 212 203 196 204 214 223 230 235 236 233 229 233 238 242 242
27 79 62 28 40 57 96 111 133 146 164 258 291 315 336 7 33 40 25 37 47 48 334 203 200 206 207 213 223 234 242 246 244 241 241 242 244 247
62 112 115 123 90 68 79 96 107 126 149 263 293 323 357 12 7 27 35 26 354 325 276 212 199 205 217 225 231 243 254 255 251 252 252 249 247 248
183 147 161 141 116 105 112 118 124 142 152 175 326 352 5 356 3 15 16 22 2 337 346 163 204 214 226 234 237 244 251 258 260 262 264 262 257 256
212 199 197 155 153 156 146 135 121 109 128 152 201 359 7 7 21 20 28 14 4 13 36 17 283 253 241 246 251 253 253 258 263 265 267 269 266 263
230 218 207 193 191 184 173 170 147 116 113 122 123 22 4 353 40 32 15 7 350 358 1 348 328 294 275 267 265 260 258 263 269 271 271 268 270 271
237 234 227 217 210 198 186 182 163 147 135 132 149 92 333 20 20 353 8 342 341 353 343 344 343 342 333 318 304 289 277 276 278 278 278 275 272 271
222 235 244 240 228 212 202 185 176 168 172 170 181 194 224 214 190 160 139 43 326 338 1 328 351 322 314 317 322 321 313 310 305 295 288 282 278 274
213 218 226 215 207 196 207 192 195 203 187 175 182 200 200 200 173 170 185 191 230 286 10 322 335 308 309 329 333 337 348 348 335 319 305 295 287 279
214 211 212 218 206 186 173 170 195 228 212 192 193 202 200 188 177 177 180 182 269 293 180 263 321 311 321 341 9 27 19 6 354 346 336 324 309 296
220 213 210 216 223 193 173 182 202 256 257 202 196 195 195 184 164 133 133 120 1 323 339 192 296 312 324 336 0 22 21 16 12 11 5 351 335 319
221 221 219 215 219 198 185 186 202 222 196 158 118 74 92 146 164 164 166 158 170 255 282 204 293 355 345 332 351 7 15 15 15 12 8 4 357 346
214 219 222 219 218 207 194 197 210 191 169 161 144 111 76 77 92 151 170 167 171 208 223 174 187 26 251 311 336 3 16 12 10 9 8 8 12 17
211 213 213 211 209 203 197 204 197 170 150 147 147 157 159 165 155 114 145 151 139 144 145 143 164 174 205 281 297 336 5 16 17 7 4 7 12 10
212 206 203 202 198 197 200 194 180 165 161 166 180 190 190 175 127 101 75 90 82 66 55 63 103 154 182 225 269 325 340 2 12 4 358 4 2 1
205 199 193 190 180 175 178 184 179 178 177 180 179 169 145 130 120 116 109 102 94 40 34 44 44 85 155 208 206 325 349 342 353 353 348 346 350 2
167 152 157 165 176 179 175 173 172 170 177 168 161 157 154 142 127 109 106 98 110 101 11 7 17 44 66 111 97 35 14 1 346 342 345 337 329 340
159 175 187 190 192 191 187 182 180 183 180 171 166 166 164 157 143 119 106 116 123 115 71 10 8 24 30 34 45 87 25 341 332 336 338 325 315 321
180 192 193 195 196 192 189 186 187 184 173 169 168 167 160 153 146 141 133 121 118 114 83 51 51 79 62 321 331 32 34 333 330 330 324 310 301 307
199 198 199 196 192 190 189 187 180 169 167 168 165 163 160 154 152 152 151 145 140 132 110 72 80 113 172 228 277 311 343 320 321 318 312 303 292 290
204 204 200 194 190 188 185 182 178 176 171 168 167 163 161 153 154 155 153 147 139 144 156 190 249 298 218 148 288 295 296 304 301 294 304 309 310 309
202 202 199 193 188 184 179 176 174 172 170 168 167 164 162 159 159 159 159 155 155 160 168 196 330 25 103 227 277 289 297 306 308 305 291 278 284 296
203 199 194 189 184 180 177 176 174 174 172 169 166 163 161 158 156 156 156 153 150 154 157 170 348 354 240 253 278 291 298 306 311 310 301 291 285 281
Height
1501 1500 1500 1500 1501 1501 1502 1503 1505 1505 1506 1508 1509 1510 1511 1512 1513 1515 1516 1517 1518 1519 1521 1522 1524 1526 1527 1529 1530 1532 1533 1535 1537 1538 1540 1541 1542 1544
1501 1500 1500 1500 1501 1501 1502 1502 1504 1505 1505 1506 1508 1509 1510 1511 1512 1513 1514 1515 1516 1517 1518 1519 1521 1522 1524 1526 1527 1528 1530 1531 1533 1534 1535 1537 1538 1539
1501 1500 1500 1500 1500 1501 1501 1502 1502 1504 1504 1505 1506 1507 1508 1509 1510 1511 1512 1512 1513 1514 1516 1517 1518 1519 1521 1522 1524 1525 1526 1527 1528 1530 1531 1532 1533 1534
1501 1500 1500 1500 1500 1500 1501 1501 1502 1502 1503 1504 1505 1506 1506 1507 1508 1509 1509 1510 1511 1512 1513 1514 1515 1516 1518 1519 1520 1521 1522 1523 1524 1525 1526 1527 1528 1529
1501 1500 1500 1500 1500 1500 1500 1500 1501 1501 1502 1503 1503 1504 1505 1505 1506 1507 1508 1508 1509 1510 1511 1512 1513 1513 1514 1515 1516 1517 1518 1519 1520 1521 1521 1522 1523 1524
1500 1500 1500 1500 1500 1500 1499 1500 1500 1500 1501 1501 1502 1503 1503 1504 1505 1505 1506 1506 1507 1508 1509 1509 1510 1510 1511 1512 1512 1513 1514 1515 1516 1516 1517 1517 1518 1519
1499 1499 1499 1499 1499 1499 1499 1499 1499 1500 1500 1500 1501 1501 1502 1502 1503 1503 1504 1505 1505 1506 1506 1507 1507 1507 1508 1509 1509 1510 1510 1511 1512 1512 1512 1513 1513 1513
1498 1498 1498 1498 1498 1498 1498 1498 1498 1499 1499 1499 1499 1500 1500 1501 1501 1502 1502 1503 1503 1504 1504 1505 1505 1505 1505 1506 1506 1507 1507 1507 1508 1508 1508 1508 1508 1509
1496 1496 1496 1497 1497 1497 1497 1497 1497 1497 1498 1498 1498 1498 1499 1499 1500 1500 1501 1501 1501 1502 1502 1502 1503 1503 1503 1503 1503 1504 1504 1504 1504 1504 1504 1504 1504 1504
1493 1494 1494 1494 1495 1495 1495 1495 1495 1496 1496 1496 1496 1497 1497 1498 1498 1499 1499 1499 1499 1500 1500 1500 1500 1501 1501 1501 1501 1501 1501 1501 1501 1500 1500 1500 1499 1499
1490 1490 1491 1491 1492 1492 1493 1493 1493 1493 1494 1494 1494 1495 1495 1496 1496 1497 1497 1497 1497 1498 1498 1498 1498 1498 1498 1499 1498 1498 1498 1498 1497 1497 1496 1496 1495 1495
1486 1486 1487 1488 1489 1489 1489 1490 1490 1491 1491 1492 1492 1493 1493 1494 1494 1495 1495 1495 1495 1496 1496 1496 1496 1496 1496 1496 1496 1496 1495 1495 1494 1493 1493 1492 1491 1490
1481 1482 1483 1484 1484 1485 1486 1486 1487 1488 1489 1489 1490 1490 1491 1492 1492 1492 1493 1493 1494 1494 1494 1494 1494 1494 1494 1494 1493 1493 1492 1491 1491 1490 1489 1488 1487 1486
1475 1477 1478 1479 1480 1480 1481 1482 1484 1484 1485 1486 1487 1487 1488 1489 1490 1490 1490 1491 1491 1492 1492 1492 1491 1491 1491 1490 1490 1489 1489 1488 1487 1486 1485 1484 1483 1482
1469 1471 1472 1473 1474 1475 1477 1478 1479 1480 1481 1482 1483 1484 1486 1486 1487 1487 1488 1488 1488 1488 1488 1488 1488 1488 1488 1487 1486 1486 1485 1484 1483 1482 1481 1480 1479 1478
1463 1464 1466 1467 1468 1470 1471 1472 1474 1475 1476 1478 1480 1481 1482 1483 1483 1484 1485 1485 1485 1485 1485 1485 1485 1485 1484 1484 1483 1482 1481 1480 1479 1479 1477 1476 1475 1474
1456 1457 1458 1460 1461 1463 1465 1467 1468 1470 1471 1473 1475 1476 1478 1479 1480 1480 1481 1481 1482 1482 1482 1482 1481 1481 1481 1480 1479 1478 1478 1477 1476 1474 1473 1472 1471 1469
1448 1449 1450 1452 1454 1457 1459 1461 1462 1464 1466 1468 1470 1472 1473 1474 1475 1476 1477 1478 1478 1478 1478 1478 1478 1478 1478 1477 1477 1475 1474 1473 1472 1470 1468 1466 1465 1464
1439 1440 1442 1445 1447 1449 1452 1454 1456 1459 1461 1463 1465 1467 1469 1470 1471 1472 1473 1474 1474 1475 1475 1475 1474 1474 1473 1473 1472 1472 1470 1469 1467 1465 1463 1461 1459 1458
1429 1431 1434 1437 1439 1442 1445 1447 1450 1453 1455 1457 1459 1462 1464 1465 1467 1468 1469 1470 1470 1471 1471 1471 1470 1470 1470 1469 1468 1467 1466 1464 1462 1460 1458 1456 1454 1452
1420 1423 1426 1429 1431 1435 1438 1441 1443 1446 1449 1451 1454 1456 1458 1460 1462 1463 1465 1466 1466 1467 1467 1467 1467 1466 1465 1465 1464 1462 1462 1460 1457 1455 1452 1449 1446 1444
1411 1414 1417 1420 1424 1427 1430 1433 1436 1439 1442 1445 1448 1451 1453 1455 1457 1459 1460 1461 1462 1462 1463 1463 1462 1462 1461 1460 1458 1457 1456 1455 1453 1451 1448 1445 1443 1438
1402 1405 1409 1412 1415 1419 1423 1426 1429 1433 1436 1439 1442 1445 1448 1450 1452 1454 1455 1456 1457 1458 1458 1458 1458 1457 1456 1455 1454 1452 1450 1448 1446 1445 1444 1441 1439 1436